Wind_Speed
2 2 3 3 4 4 5 6 7 8 8 9 10 11 12 12 13 13 13 12 12 12 11 11 11 11 11 11 11 11 11 11 10 10 10 9 9 9 9 8 8 8 7
3 3 4 5 5 6 7 7 8 9 10 10 11 12 12 13 14 14 14 13 13 13 13 12 12 12 12 12 12 12 12 12 11 11 10 10 10 10 10 9 9 9 8
5 5 5 6 7 7 8 8 9 10 10 11 11 12 13 14 14 15 15 14 14 14 14 13 13 13 13 13 13 12 12 12 12 11 11 11 11 10 10 10 10 10 9
6 6 7 8 8 8 8 9 10 10 11 11 12 13 14 14 15 15 15 15 15 15 14 14 14 14 14 14 13 13 13 12 12 12 12 12 12 11 12 12 11 11 10
8 8 8 9 9 9 9 10 11 11 12 12 13 13 14 15 16 16 16 15 15 15 15 15 15 15 15 15 14 14 14 13 13 14 13 13 13 13 13 13 13 13 12
9 9 9 9 10 10 11 11 11 12 13 13 14 15 15 16 16 16 17 17 16 16 16 16 16 16 16 16 15 15 15 15 15 14 14 14 14 14 14 14 14 14 14
9 10 10 10 11 11 11 12 13 13 14 15 16 16 17 17 17 17 18 17 17 17 17 17 17 17 17 17 16 16 16 16 16 16 16 16 16 16 15 14 14 15 15
10 11 11 11 12 12 13 14 14 15 15 16 16 17 18 18 18 18 18 18 18 18 18 18 18 18 18 18 18 17 17 18 18 18 17 17 17 16 16 16 16 15 15
11 11 12 12 12 13 14 14 15 15 16 16 17 18 18 19 19 19 19 19 19 19 19 19 19 19 19 19 19 19 19 19 19 19 19 19 18 17 17 18 18 18 17
12 13 13 13 13 14 15 15 16 17 17 18 18 19 20 20 21 20 20 20 19 19 20 20 20 20 20 20 20 21 21 21 20 20 20 20 20 19 19 19 19 19 18
13 13 14 14 15 15 16 17 17 18 18 19 20 20 21 21 21 21 21 20 20 20 20 20 20 20 20 21 21 21 22 22 22 22 22 22 21 21 21 20 20 20 20
13 14 15 16 16 16 17 18 19 19 20 20 21 22 22 22 22 22 21 21 20 20 20 19 20 20 20 20 21 22 22 23 23 23 23 23 23 23 22 21 21 21 21
14 15 16 16 16 17 17 18 19 20 21 21 22 23 23 22 22 22 22 21 21 20 21 21 21 21 21 21 21 22 23 24 24 24 24 24 24 24 23 23 22 22 22
16 17 17 16 17 18 18 19 20 20 21 22 23 23 23 22 22 22 22 22 22 22 22 22 22 22 22 22 23 24 24 24 25 25 25 25 26 25 24 24 24 23 23
16 17 17 16 17 18 19 20 21 21 22 23 23 23 23 23 23 24 23 23 23 23 22 22 23 23 23 24 24 25 25 25 25 26 27 27 27 27 26 25 25 25 24
17 18 18 18 18 19 19 20 21 22 22 22 23 23 24 24 24 24 24 24 24 23 23 24 25 25 25 25 25 26 26 27 27 27 28 28 27 27 27 27 27 26 25
18 19 20 19 19 20 21 21 21 22 23 23 23 23 24 24 24 25 25 25 25 24 24 25 26 26 26 27 27 27 27 28 28 28 29 29 28 27 27 27 27 27 26
20 20 21 21 21 21 22 22 22 23 24 24 24 25 25 25 26 25 26 26 26 26 26 26 27 27 28 28 28 28 28 29 29 29 29 29 29 28 28 27 27 27 27
20 20 21 22 23 23 24 24 24 24 24 25 26 25 26 27 27 27 26 27 27 26 27 27 28 29 28 28 28 28 29 29 29 29 29 29 29 29 29 28 28 28 28
21 21 21 22 23 24 25 25 25 25 26 27 27 27 28 28 27 27 28 27 27 27 27 27 28 28 28 29 29 28 28 28 29 29 29 29 29 30 29 29 29 29 29
21 23 23 23 24 25 25 25 25 26 27 27 27 27 28 28 28 28 29 28 28 28 28 29 29 29 29 29 28 28 28 27 28 28 29 29 29 29 29 29 30 29 29
23 25 25 24 25 25 25 25 26 26 25 26 26 27 28 28 29 29 28 28 28 29 29 30 29 29 29 29 29 29 28 27 27 28 29 29 28 28 28 28 29 29 30
24 24 24 25 25 25 25 26 26 26 25 25 26 26 26 26 27 28 27 28 29 30 29 29 28 28 28 28 28 28 28 27 27 27 28 29 29 29 29 29 29 28 28
23 23 23 25 25 25 25 25 25 25 26 26 26 26 25 26 27 27 27 28 29 28 28 28 28 27 26 26 26 27 27 26 25 25 26 27 27 28 28 29 28 27 27
24 24 25 25 25 25 25 25 26 26 27 27 26 25 26 26 26 27 27 27 27 26 27 27 27 26 25 25 25 25 24 24 24 24 24 25 25 26 26 27 27 28 27
25 26 26 26 25 25 25 25 26 26 27 26 26 26 26 26 26 26 25 25 25 25 25 25 24 24 23 22 23 23 23 22 22 22 22 23 24 24 25 25 26 27 27
Wind_Direction
325 331 323 309 304 299 299 302 303 305 306 307 307 306 306 306 306 305 303 303 302 302 302 299 295 291 289 286 283 282 279 276 273 271 270 269 268 264 261 259 259 260 254
310 309 308 301 299 298 298 298 298 300 301 302 302 301 301 302 302 301 299 297 297 298 298 296 294 290 288 285 281 280 279 277 274 272 270 269 267 264 263 262 261 262 258
307 300 302 301 298 298 299 297 296 297 297 297 297 297 296 297 298 298 295 292 292 293 293 293 291 289 287 285 282 281 279 277 275 274 273 274 270 264 264 263 261 259 258
300 298 299 298 297 298 299 299 297 296 295 294 294 293 292 292 294 294 293 290 289 289 288 288 287 285 285 284 282 281 280 277 275 273 273 273 272 267 266 261 257 255 255
293 295 295 296 295 294 295 295 295 294 293 293 292 290 290 291 292 292 291 290 288 288 288 288 287 285 285 283 281 279 279 277 274 272 273 273 271 267 267 262 258 254 253
291 292 291 292 293 293 291 291 292 292 293 293 292 292 293 293 293 291 290 288 287 287 287 285 285 284 283 282 282 280 279 277 274 273 273 271 271 269 267 264 260 256 253
289 292 291 289 290 292 293 292 291 291 290 291 290 290 291 292 291 292 290 289 287 285 284 284 284 283 281 280 280 279 277 275 272 270 271 268 268 267 265 263 262 256 253
291 290 289 290 290 292 293 294 294 292 290 290 291 290 290 290 291 292 291 290 286 284 283 282 281 280 279 278 277 277 275 273 271 268 269 268 266 265 264 262 261 258 255
289 288 286 287 288 291 293 294 297 296 293 292 292 292 292 293 293 293 291 290 286 283 282 281 280 280 277 276 276 275 274 273 270 269 267 267 267 265 263 262 260 257 258
286 286 284 284 287 290 295 296 296 297 297 295 293 292 293 293 294 292 292 290 288 285 282 280 278 280 279 277 276 275 274 272 270 268 267 266 266 265 261 262 260 259 260
284 286 284 284 286 291 295 296 297 297 296 295 295 294 294 293 292 291 290 289 289 286 284 282 279 280 281 279 276 275 274 274 272 269 267 267 266 265 263 262 262 260 259
283 285 284 282 283 289 293 295 296 295 294 293 293 294 293 292 292 291 290 289 288 285 282 282 281 281 282 280 278 276 275 274 272 271 269 268 267 266 264 264 262 262 261
282 284 286 287 286 291 292 293 296 295 293 294 294 293 293 292 291 289 291 289 288 286 284 282 282 282 281 280 279 278 276 274 273 271 269 267 266 265 264 263 262 262 262
285 286 286 289 292 292 294 295 297 296 293 294 294 294 293 292 291 290 290 290 288 286 284 282 282 281 280 281 280 278 275 273 273 271 269 267 266 265 262 262 261 262 263
286 287 288 291 293 294 295 296 296 295 293 294 294 295 295 292 291 290 288 287 288 286 284 282 283 282 281 281 281 278 273 272 272 271 269 266 265 265 262 262 261 260 261
289 290 292 292 292 293 294 294 295 296 294 295 294 293 294 293 291 290 287 285 285 286 283 282 282 281 280 281 281 280 276 272 272 270 269 266 263 263 262 260 259 259 259
289 289 292 291 291 293 294 293 295 295 294 294 295 294 294 293 292 291 288 286 285 285 283 282 281 280 278 280 280 279 277 272 270 268 268 265 264 262 261 260 259 256 257
290 292 294 295 295 296 295 294 294 295 294 294 295 295 295 295 294 291 289 288 287 284 284 284 283 281 279 279 278 278 275 272 270 268 267 264 263 262 260 260 258 255 256
293 296 297 298 298 297 296 295 295 296 296 295 294 295 295 296 295 291 290 290 289 286 286 286 285 282 280 279 278 277 275 273 271 269 267 264 262 261 260 259 258 256 255
293 295 297 298 298 297 297 296 296 295 297 297 296 295 295 295 294 292 290 290 290 290 288 287 287 284 281 278 278 278 277 274 272 268 266 264 263 262 260 259 258 256 254
294 296 297 297 297 297 297 297 296 295 296 297 296 295 294 294 293 293 292 290 291 291 290 288 287 285 283 279 276 277 277 275 270 268 265 264 263 261 259 258 255 254 254
295 295 295 293 294 296 296 296 296 295 295 296 296 296 296 295 294 294 294 291 291 291 291 290 289 286 284 280 275 275 275 273 271 269 266 263 262 260 257 256 254 252 251
295 295 294 293 294 294 296 297 297 296 296 297 297 298 297 296 294 293 293 293 292 292 291 291 291 288 284 281 277 275 274 272 269 268 266 263 262 260 258 256 254 251 251
296 295 294 295 294 293 295 297 297 296 297 298 299 300 298 296 294 295 295 295 294 293 293 293 292 289 286 283 280 277 273 270 267 266 266 263 261 261 260 256 253 252 252
298 297 296 295 293 293 293 295 296 297 298 299 301 301 298 296 295 295 296 296 297 295 294 294 294 292 290 285 283 280 275 272 268 265 264 263 262 261 260 258 255 252 252
301 299 297 295 292 292 292 294 294 296 299 299 301 302 300 299 298 296 297 297 298 297 296 295 295 295 291 287 285 280 276 274 270 267 265 263 264 263 260 258 257 254 255
Height
5911 5910 5910 5910 5910 5910 5910 5909 5909 5908 5907 5907 5906 5905 5904 5903 5902 5901 5900 5899 5897 5896 5895 5893 5892 5891 5889 5888 5887 5886 5886 5885 5885 5884 5883 5883 5882 5882 5881 5881 5881 5880 5880
5911 5910 5910 5910 5909 5909 5909 5908 5908 5907 5906 5906 5905 5904 5903 5902 5901 5900 5898 5897 5896 5894 5893 5891 5890 5889 5887 5886 5885 5884 5884 5883 5883 5882 5881 5881 5880 5880 5880 5879 5879 5878 5878
5910 5910 5909 5909 5908 5908 5907 5907 5906 5906 5905 5904 5903 5902 5901 5900 5899 5898 5896 5895 5894 5892 5891 5889 5888 5887 5885 5884 5883 5882 5881 5881 5880 5880 5879 5879 5878 5878 5877 5877 5876 5876 5876
5909 5909 5908 5907 5907 5907 5906 5905 5905 5904 5903 5902 5901 5900 5899 5898 5897 5896 5894 5893 5892 5890 5889 5887 5886 5884 5883 5882 5881 5880 5879 5878 5878 5877 5877 5876 5876 5875 5875 5874 5874 5874 5874
5908 5907 5907 5906 5905 5905 5904 5904 5903 5902 5901 5900 5899 5898 5897 5896 5894 5893 5892 5891 5889 5888 5887 5885 5883 5882 5881 5879 5878 5877 5876 5876 5875 5874 5874 5874 5873 5873 5872 5872 5872 5872 5872
5906 5905 5905 5904 5904 5903 5903 5902 5901 5900 5899 5898 5897 5896 5894 5893 5892 5891 5890 5888 5887 5885 5884 5882 5881 5880 5878 5877 5876 5874 5874 5873 5872 5872 5871 5871 5870 5870 5870 5870 5870 5869 5869
5904 5904 5903 5903 5902 5901 5900 5899 5899 5898 5896 5895 5894 5893 5892 5891 5889 5888 5886 5885 5884 5882 5881 5879 5878 5877 5875 5874 5872 5871 5870 5870 5869 5868 5868 5868 5867 5867 5867 5867 5867 5867 5867
5902 5902 5901 5900 5900 5899 5898 5897 5896 5895 5894 5892 5891 5890 5889 5887 5886 5884 5883 5882 5880 5879 5877 5876 5874 5873 5872 5870 5869 5868 5867 5866 5865 5865 5865 5864 5864 5864 5864 5863 5863 5863 5863
5900 5900 5899 5898 5897 5896 5895 5894 5893 5892 5890 5889 5888 5886 5885 5883 5882 5880 5879 5878 5876 5875 5874 5872 5870 5869 5868 5866 5865 5864 5863 5862 5862 5861 5861 5860 5860 5860 5860 5860 5859 5859 5859
5898 5897 5896 5895 5894 5894 5892 5891 5890 5889 5887 5885 5884 5883 5881 5880 5878 5876 5875 5874 5872 5871 5870 5868 5866 5865 5863 5862 5861 5860 5859 5858 5858 5857 5857 5856 5856 5855 5855 5855 5855 5855 5855
5895 5894 5894 5893 5892 5891 5889 5888 5887 5885 5883 5882 5880 5878 5877 5875 5874 5872 5871 5869 5868 5866 5865 5864 5862 5861 5859 5858 5856 5855 5854 5853 5853 5853 5852 5852 5851 5851 5851 5851 5851 5851 5851
5893 5892 5891 5890 5889 5887 5886 5884 5883 5881 5879 5878 5876 5874 5873 5871 5869 5867 5866 5864 5863 5861 5860 5859 5857 5856 5854 5853 5851 5850 5849 5848 5848 5847 5847 5847 5846 5846 5846 5846 5847 5846 5847
5889 5888 5887 5886 5885 5883 5882 5881 5879 5877 5875 5873 5872 5870 5868 5866 5864 5863 5861 5859 5858 5857 5855 5854 5852 5851 5850 5848 5846 5845 5844 5843 5842 5842 5841 5841 5841 5841 5841 5841 5841 5841 5842
5885 5884 5883 5882 5881 5879 5878 5876 5874 5872 5870 5869 5867 5865 5863 5861 5859 5857 5856 5855 5853 5851 5850 5848 5847 5845 5844 5843 5841 5839 5838 5837 5836 5836 5835 5835 5835 5835 5835 5836 5836 5836 5837
5881 5880 5878 5877 5876 5875 5873 5872 5870 5868 5866 5864 5861 5859 5858 5855 5854 5852 5851 5849 5847 5846 5844 5842 5841 5840 5838 5837 5835 5833 5832 5831 5830 5829 5829 5829 5829 5829 5829 5830 5830 5831 5831
5877 5876 5875 5873 5871 5870 5868 5867 5865 5863 5861 5859 5856 5854 5852 5850 5848 5846 5845 5843 5841 5839 5837 5836 5834 5833 5832 5830 5829 5827 5825 5824 5823 5822 5822 5822 5822 5822 5822 5823 5823 5824 5825
5873 5872 5870 5868 5867 5865 5863 5861 5859 5857 5855 5853 5851 5848 5846 5844 5842 5840 5838 5836 5834 5832 5830 5829 5827 5825 5824 5823 5821 5820 5819 5817 5816 5815 5815 5815 5815 5815 5815 5816 5816 5817 5818
5868 5867 5866 5864 5861 5860 5858 5856 5854 5851 5849 5847 5844 5842 5840 5838 5835 5833 5831 5829 5827 5825 5823 5821 5820 5818 5817 5815 5814 5812 5811 5809 5808 5808 5807 5807 5807 5808 5808 5808 5809 5810 5811
5864 5863 5861 5859 5857 5854 5852 5850 5848 5846 5843 5841 5838 5836 5834 5831 5829 5826 5824 5822 5820 5818 5816 5814 5812 5810 5809 5807 5806 5804 5802 5801 5800 5800 5799 5799 5799 5800 5800 5801 5801 5802 5803
5859 5857 5855 5853 5851 5849 5847 5845 5842 5840 5838 5835 5832 5830 5827 5825 5822 5819 5817 5815 5813 5810 5808 5806 5804 5802 5800 5799 5797 5796 5794 5793 5792 5792 5791 5792 5792 5792 5792 5793 5794 5794 5796
5854 5852 5851 5849 5846 5844 5842 5839 5837 5834 5831 5829 5826 5823 5820 5818 5815 5812 5810 5807 5805 5802 5800 5798 5796 5794 5792 5790 5789 5787 5786 5784 5784 5783 5783 5783 5784 5784 5784 5785 5786 5787 5788
5849 5847 5845 5843 5841 5838 5835 5833 5831 5828 5825 5822 5819 5816 5813 5810 5807 5804 5802 5799 5797 5794 5792 5790 5787 5785 5783 5781 5780 5779 5778 5777 5775 5775 5775 5775 5775 5776 5776 5777 5777 5779 5780
5844 5842 5839 5837 5834 5832 5829 5827 5825 5822 5819 5816 5813 5809 5806 5803 5800 5797 5794 5791 5789 5786 5783 5781 5779 5777 5775 5773 5771 5770 5769 5768 5767 5767 5767 5767 5767 5768 5768 5769 5769 5770 5772
5837 5835 5833 5831 5829 5826 5824 5822 5819 5816 5813 5810 5806 5803 5799 5796 5793 5790 5787 5784 5781 5778 5775 5773 5771 5769 5766 5764 5763 5761 5760 5760 5760 5760 5759 5759 5759 5759 5760 5761 5761 5762 5764
5832 5830 5828 5825 5823 5821 5818 5816 5813 5810 5807 5803 5799 5796 5792 5789 5786 5783 5780 5776 5773 5771 5768 5766 5763 5761 5759 5757 5755 5754 5753 5752 5752 5752 5752 5751 5751 5752 5752 5753 5753 5754 5756
5827 5824 5821 5819 5816 5814 5812 5810 5807 5804 5800 5797 5793 5789 5786 5783 5780 5776 5773 5770 5767 5764 5761 5759 5756 5754 5752 5750 5748 5747 5746 5745 5745 5745 5745 5744 5744 5744 5745 5745 5746 5747 5748